Humidity-temperature Sensor

Selected Measurement Type: Air Temperature

 
Air Temperature [°C]     6 entries per hour
Showing data from 6/25/2017 (00:00:00 Z) to 6/22/2017 (21:10:00 Z)
Previous Next [ Day | 3-Days | 7-Days ]
First Last
Prev [ Day | 3-Days | 7-Days ] Next
First Last

Start Time:     :
End Time:     :     
Time (in GMT) :00 :50 :40 :30 :20 :10
Previous Next [ Day | 3-Days | 7-Days ]
First Last
Prev [ Day | 3-Days | 7-Days ] Next
First Last


123 => good data
MM => data is determined as missing
-- => data not received/configured
Back to Top Back to Top
6/25/2017 00:00 to 23:10 24.47 24.51 24.52 24.58 24.49 24.63
6/24/2017 23:00 to 22:10 24.47 24.54 24.61 24.69 24.66 24.65
6/24/2017 22:00 to 21:10 24.59 24.56 24.48 24.34 24.27 24.18
6/24/2017 21:00 to 20:10 24.20 24.29 24.34 24.25 24.32 24.38
6/24/2017 20:00 to 19:10 24.35 24.49 24.40 24.41 24.40 24.39
6/24/2017 19:00 to 18:10 24.29 24.41 24.53 24.57 24.60 24.60
6/24/2017 18:00 to 17:10 24.44 24.32 24.24 24.40 24.46 24.36
6/24/2017 17:00 to 16:10 24.38 24.41 24.60 24.67 24.60 24.63
6/24/2017 16:00 to 15:10 24.54 24.53 24.58 24.82 24.88 24.73
6/24/2017 15:00 to 14:10 24.83 24.92 24.95 24.88 24.81 24.63
6/24/2017 14:00 to 13:10 24.57 24.46 24.23 24.24 24.27 24.21
6/24/2017 13:00 to 12:10 23.94 23.84 24.51 24.56 24.48 24.33
6/24/2017 12:00 to 11:10 24.18 24.18 24.19 24.19 24.14 24.18
6/24/2017 11:00 to 10:10 24.22 24.69 24.49 24.70 24.50 24.42
6/24/2017 10:00 to 9:10 24.39 24.35 24.19 24.42 24.34 24.23
6/24/2017 09:00 to 8:10 24.26 24.35 24.40 24.36 24.32 24.38
6/24/2017 08:00 to 7:10 24.42 24.32 24.37 24.44 24.40 24.27
6/24/2017 07:00 to 6:10 23.92 23.95 23.87 23.88 24.06 24.26
6/24/2017 06:00 to 5:10 24.30 24.30 24.34 24.31 24.31 24.14
6/24/2017 05:00 to 4:10 24.20 24.22 24.12 24.08 23.78 23.58
6/24/2017 04:00 to 3:10 23.96 23.78 23.89 23.74 23.72 23.34
6/24/2017 03:00 to 2:10 23.52 23.28 23.35 23.20 23.73 23.89
6/24/2017 02:00 to 1:10 23.87 23.86 23.70 23.61 23.70 23.60
6/24/2017 01:00 to 0:10 23.22 23.04 23.11 24.23 24.18 24.24
6/24/2017 00:00 to 23:10 24.21 24.23 24.18 24.19 24.16 24.09
6/23/2017 23:00 to 22:10 24.15 24.38 24.39 24.28 24.31 24.31
6/23/2017 22:00 to 21:10 24.27 24.26 24.27 24.38 24.25 24.22
6/23/2017 21:00 to 20:10 24.17 24.21 24.22 24.31 24.39 24.38
6/23/2017 20:00 to 19:10 24.49 24.52 24.62 24.63 24.65 24.48
6/23/2017 19:00 to 18:10 24.36 24.33 24.17 24.27 24.38 24.35
6/23/2017 18:00 to 17:10 24.41 24.47 24.46 24.55 24.49 24.34
6/23/2017 17:00 to 16:10 24.17 24.01 23.96 23.76 23.87 23.90
6/23/2017 16:00 to 15:10 23.92 23.91 23.71 23.51 23.12 23.59
6/23/2017 15:00 to 14:10 23.57 23.61 23.52 23.29 24.50 24.48
6/23/2017 14:00 to 13:10 24.45 24.28 24.25 24.22 24.25 24.31
6/23/2017 13:00 to 12:10 24.35 24.31 24.13 23.92 23.82 23.70
6/23/2017 12:00 to 11:10 23.61 23.70 23.72 23.82 23.77 24.12
6/23/2017 11:00 to 10:10 23.97 23.92 23.88 24.04 23.93 23.76
6/23/2017 10:00 to 9:10 23.69 23.52 23.37 23.31 23.41 23.38
6/23/2017 09:00 to 8:10 23.22 23.15 23.43 23.50 24.20 24.39
6/23/2017 08:00 to 7:10 24.42 24.38 24.42 24.40 24.45 24.50
6/23/2017 07:00 to 6:10 24.49 24.47 24.43 24.43 24.43 24.42
6/23/2017 06:00 to 5:10 24.51 24.40 24.36 24.47 24.43 24.48
6/23/2017 05:00 to 4:10 24.51 24.52 24.51 24.56 24.57 24.53
6/23/2017 04:00 to 3:10 24.58 24.57 24.62 24.64 24.62 24.62
6/23/2017 03:00 to 2:10 -- -- -- -- -- --
6/23/2017 02:00 to 1:10 24.77 24.80 24.69 24.72 24.76 24.80
6/23/2017 01:00 to 0:10 -- -- -- -- -- --
6/23/2017 00:00 to 23:10 24.74 24.73 24.78 24.81 24.87 24.87
6/22/2017 23:00 to 22:10 24.83 24.87 24.87 24.93 24.86 24.89
6/22/2017 22:00 to 21:10 24.87 24.80 24.82 24.79 24.76 24.72